User: anonymous   Login
Location: Unspecified
(0.0000°N, 0.0000°E)
Time: 12:12:30
(UTC+00:00)
Language:

UHF F/O F2 - Orbit

View from above orbital plane
View from above orbital plane
View from above satellite
View from above satellite

Ground track
Ground track

The orbit data is extracted from the following two-line orbital elements,

1 22787U 93056A   20047.59986521 +.00000113 +00000-0 +00000-0 0  9992
2 22787 011.2451 016.1157 0002593 329.9888 044.5920 01.00268380095409
Epoch (UTC): 16 February 2020 14:23:48
Eccentricity: 0.0002593
inclination: 11.2451°
perigee height: 35776 km
apogee height: 35798 km
right ascension of ascending node: 16.1157°
argument of perigee: 329.9888°
revolutions per day: 1.00268380
mean anomaly at epoch: 44.5920°
orbit number at epoch: 9540

The dashed part of the orbit path shows where the satellite is in the earth's shadow,  

DLR